| time (UTC) | temp F | wind direction | speed MPH | gust MPH | rain 1hr in | rain 24hr in | rain mn in | humidity % | barometer mb |
| 20260504042016 | 50 | 0.0 | 0.0 | 0.00 | 0.00 | 0.00 | 76 | 1019.6 | |
| 20260504041017 | 50 | 0.0 | 0.0 | 0.00 | 0.00 | 0.00 | 76 | 1019.7 | |
| 20260504040016 | 50 | 0.0 | 0.0 | 0.00 | 0.00 | 0.00 | 75 | 1019.6 | |
| 20260504035036 | 50 | 0.0 | 0.0 | 0.00 | 0.00 | 0.00 | 75 | 1019.5 | |
| 20260504034017 | 51 | 0.0 | 0.0 | 0.00 | 0.00 | 0.00 | 74 | 1019.7 | |
| 20260504033017 | 51 | 0.0 | 0.0 | 0.00 | 0.00 | 0.00 | 74 | 1019.7 | |
| 20260504032016 | 51 | 0.0 | 0.0 | 0.00 | 0.00 | 0.00 | 74 | 1019.6 | |
| 20260504031016 | 52 | 0.0 | 1.0 | 0.00 | 0.00 | 0.00 | 73 | 1019.6 | |
| 20260504030036 | 52 | 0.0 | 0.0 | 0.00 | 0.00 | 0.00 | 72 | 1019.6 | |
| 20260504025016 | 52 | 0.0 | 0.0 | 0.00 | 0.00 | 0.00 | 71 | 1019.5 | |
| 20260504024036 | 52 | 0.0 | 0.0 | 0.00 | 0.00 | 0.00 | 70 | 1019.4 | |
| 20260504023036 | 53 | 0.0 | 0.0 | 0.00 | 0.00 | 0.00 | 69 | 1019.3 | |
| 20260504022017 | 53 | 0.0 | 0.0 | 0.00 | 0.00 | 0.00 | 68 | 1019.3 | |
| 20260504021016 | 53 | 0.0 | 0.0 | 0.00 | 0.00 | 0.00 | 66 | 1019.1 | |
| 20260504020016 | 54 | 0.0 | 0.0 | 0.00 | 0.00 | 0.00 | 65 | 1019.0 | |
| 20260504015016 | 54 | 0.0 | 0.0 | 0.00 | 0.00 | 0.00 | 64 | 1018.8 | |
| 20260504014016 | 55 | 0.0 | 1.0 | 0.00 | 0.00 | 0.00 | 62 | 1018.5 | |
| 20260504013016 | 56 | 0.0 | 1.0 | 0.00 | 0.00 | 0.00 | 60 | 1018.3 | |
| 20260504012016 | 56 | 0.0 | 0.0 | 0.00 | 0.00 | 0.00 | 56 | 1018.4 | |
| 20260504011017 | 56 | 0.0 | 0.0 | 0.00 | 0.00 | 0.00 | 55 | 1018.4 | |
| 20260504010037 | 57 | 0.0 | 0.0 | 0.00 | 0.00 | 0.00 | 54 | 1018.2 | |
| 20260504005016 | 57 | 0.0 | 0.0 | 0.00 | 0.00 | 0.00 | 53 | 1018.1 | |
| 20260504004017 | 58 | 0.0 | 0.0 | 0.00 | 0.00 | 0.00 | 52 | 1017.8 | |
| 20260504003016 | 59 | 0.0 | 0.0 | 0.00 | 0.00 | 0.00 | 50 | 1017.7 | |
| 20260504002016 | 60 | 0.0 | 0.0 | 0.00 | 0.00 | 0.00 | 50 | 1017.8 | |
| 20260504001017 | 61 | 0.0 | 2.0 | 0.00 | 0.00 | 0.00 | 49 | 1017.8 | |
| 20260504000016 | 62 | 0.0 | 0.0 | 0.00 | 0.00 | 0.00 | 47 | 1017.7 | |
| 20260503235016 | 63 | 0.0 | 1.0 | 0.00 | 0.00 | 0.00 | 46 | 1017.7 | |
| 20260503234016 | 64 | 0.0 | 1.0 | 0.00 | 0.00 | 0.00 | 45 | 1017.7 | |
| 20260503233016 | 65 | 0 | 1.0 | 3.0 | 0.00 | 0.00 | 0.00 | 43 | 1017.7 |
| 20260503232016 | 66 | 0 | 1.0 | 5.0 | 0.00 | 0.00 | 0.00 | 40 | 1017.9 |
| 20260503231016 | 66 | 0 | 3.0 | 8.0 | 0.00 | 0.00 | 0.00 | 37 | 1018.0 |
| 20260503230016 | 66 | 0 | 2.0 | 5.0 | 0.00 | 0.00 | 0.00 | 38 | 1018.0 |
| 20260503225036 | 67 | 0 | 1.0 | 2.0 | 0.00 | 0.00 | 0.00 | 39 | 1018.0 |
| 20260503224016 | 68 | 0 | 2.0 | 5.0 | 0.00 | 0.00 | 0.00 | 36 | 1018.1 |
| 20260503223015 | 68 | 0 | 1.0 | 5.0 | 0.00 | 0.00 | 0.00 | 38 | 1018.0 |
| 20260503222015 | 69 | 0 | 1.0 | 8.0 | 0.00 | 0.00 | 0.00 | 38 | 1018.0 |
| 20260503221016 | 69 | 0 | 1.0 | 3.0 | 0.00 | 0.00 | 0.00 | 41 | 1018.1 |
| 20260503220036 | 69 | 0 | 2.0 | 5.0 | 0.00 | 0.00 | 0.00 | 37 | 1018.2 |
| 20260503215016 | 70 | 0 | 2.0 | 6.0 | 0.00 | 0.00 | 0.00 | 36 | 1018.3 |
| 20260503214015 | 70 | 0 | 2.0 | 5.0 | 0.00 | 0.00 | 0.00 | 32 | 1018.3 |
| 20260503213016 | 70 | 0 | 2.0 | 4.0 | 0.00 | 0.00 | 0.00 | 37 | 1018.4 |
| 20260503212055 | 70 | 0 | 3.0 | 6.0 | 0.00 | 0.00 | 0.00 | 34 | 1018.6 |
| 20260503211015 | 70 | 0 | 1.0 | 4.0 | 0.00 | 0.00 | 0.00 | 35 | 1018.6 |
| 20260503210015 | 70 | 0 | 3.0 | 9.0 | 0.00 | 0.00 | 0.00 | 33 | 1018.8 |
| 20260503205015 | 70 | 0 | 2.0 | 6.0 | 0.00 | 0.00 | 0.00 | 34 | 1018.8 |
| 20260503204016 | 70 | 0 | 2.0 | 5.0 | 0.00 | 0.00 | 0.00 | 33 | 1018.9 |
| 20260503203037 | 70 | 0 | 2.0 | 6.0 | 0.00 | 0.00 | 0.00 | 36 | 1019.2 |
| 20260503202017 | 70 | 203 | 3.0 | 6.0 | 0.00 | 0.00 | 0.00 | 35 | 1019.2 |
| 20260503201017 | 70 | 135 | 2.0 | 9.0 | 0.00 | 0.00 | 0.00 | 37 | 1019.4 |
| 20260503200017 | 70 | 135 | 3.0 | 8.0 | 0.00 | 0.00 | 0.00 | 34 | 1019.5 |
| 20260503195017 | 71 | 180 | 2.0 | 5.0 | 0.00 | 0.00 | 0.00 | 35 | 1019.7 |
| 20260503194018 | 71 | 203 | 3.0 | 5.0 | 0.00 | 0.00 | 0.00 | 35 | 1019.8 |
| 20260503193018 | 71 | 0 | 2.0 | 7.0 | 0.00 | 0.00 | 0.00 | 35 | 1020.1 |
| 20260503192018 | 70 | 0 | 3.0 | 6.0 | 0.00 | 0.00 | 0.00 | 34 | 1020.2 |
| 20260503191017 | 71 | 0 | 2.0 | 8.0 | 0.00 | 0.00 | 0.00 | 35 | 1020.3 |
| 20260503190017 | 70 | 0 | 2.0 | 5.0 | 0.00 | 0.00 | 0.00 | 35 | 1020.4 |
| 20260503185017 | 71 | 0 | 3.0 | 5.0 | 0.00 | 0.00 | 0.00 | 33 | 1020.6 |
| 20260503184037 | 71 | 0 | 1.0 | 3.0 | 0.00 | 0.00 | 0.00 | 37 | 1020.7 |
| 20260503183018 | 70 | 0 | 2.0 | 5.0 | 0.00 | 0.00 | 0.00 | 39 | 1020.7 |
| 20260503182017 | 70 | 0 | 2.0 | 5.0 | 0.00 | 0.00 | 0.00 | 37 | 1020.9 |
| 20260503181017 | 68 | 0 | 3.0 | 5.0 | 0.00 | 0.00 | 0.00 | 39 | 1020.7 |
| 20260503180017 | 69 | 0 | 2.0 | 6.0 | 0.00 | 0.00 | 0.00 | 38 | 1020.8 |
| 20260503175017 | 69 | 0 | 3.0 | 5.0 | 0.00 | 0.00 | 0.00 | 37 | 1020.9 |
| 20260503174017 | 68 | 0 | 3.0 | 5.0 | 0.00 | 0.00 | 0.00 | 42 | 1021.1 |
| 20260503173017 | 68 | 0 | 1.0 | 4.0 | 0.00 | 0.00 | 0.00 | 39 | 1021.3 |
| 20260503172017 | 68 | 0 | 2.0 | 5.0 | 0.00 | 0.00 | 0.00 | 36 | 1021.4 |
| 20260503171017 | 68 | 0 | 2.0 | 5.0 | 0.00 | 0.00 | 0.00 | 37 | 1021.5 |
| 20260503131016 | 48 | 0.0 | 2.0 | 0.00 | 0.00 | 0.00 | 79 | 1021.2 | |
| 20260503081057 | 44 | 0.0 | 0.0 | 0.00 | 0.00 | 0.00 | 79 | 1019.3 | |
| 20260503072017 | 45 | 0.0 | 0.0 | 0.00 | 0.00 | 0.00 | 77 | 1019.0 | |
| 20260503071017 | 46 | 0.0 | 0.0 | 0.00 | 0.00 | 0.00 | 76 | 1018.9 | |
| 20260503055017 | 48 | 0.0 | 0.0 | 0.00 | 0.00 | 0.00 | 70 | 1018.8 | |
| 20260503054017 | 48 | 0.0 | 0.0 | 0.00 | 0.00 | 0.00 | 70 | 1018.8 | |
| 20260503053017 | 48 | 0.0 | 0.0 | 0.00 | 0.00 | 0.00 | 72 | 1018.7 | |
| 20260503052017 | 48 | 0.0 | 0.0 | 0.00 | 0.00 | 0.00 | 71 | 1018.6 | |
| 20260503051017 | 48 | 0.0 | 0.0 | 0.00 | 0.00 | 0.00 | 71 | 1018.5 | |
| 20260503050016 | 48 | 0.0 | 0.0 | 0.00 | 0.00 | 0.00 | 72 | 1018.5 | |
| 20260503045016 | 47 | 0.0 | 0.0 | 0.00 | 0.00 | 0.00 | 71 | 1018.3 | |
| 20260503044017 | 48 | 0.0 | 1.0 | 0.00 | 0.00 | 0.00 | 70 | 1018.3 | |
| 20260503043017 | 48 | 0.0 | 1.0 | 0.00 | 0.00 | 0.00 | 69 | 1018.3 |